Location: Unspecified
(0.0000°N, 0.0000°E)
Time: 11:45:44
(UTC+00:00)

USA 125 - Pass Details

Date: 10 June 2023
Orbit: 363 x 39930 km, 64.0° (Epoch: 09 October)

Event Time Altitude Azimuth Distance (km) Brightness Sun altitude
Rises 12:52:50 0° 95° (E) 25,479 ? 63.6°
Reaches altitude 10° 13:43:18 10° 82° (E) 32,106 ? 55.8°
Maximum altitude 17:59:58 42° 27° (NNE) 41,376 ? -0.1°
Drops below altitude 10° 21:56:28 10° 9° (N) 22,076 ? -52.3°
Sets 22:21:47 0° 19° (NNE) 17,666 ? -56.9°
